Regional Weather Roundup
Issued by NWS Cleveland, OH

Home | Current Version | Previous Version | Graphics & Text | Print | Product List | Glossary On
Versions: 1 2 3 4 5 6 7 8 9 10 11 12 13 14 15 16 17 18 19 20 21 22 23 24 25 26 27 28 29 30 31 32 33 34 35 36 37 38 39 40 41 42 43 44 45 46 47 48 49 50
000
ASUS41 KCLE 211210
RWRCLE
OHIO REGIONAL WEATHER ROUNDUP
NATIONAL WEATHER SERVICE WILMINGTON, OH
800 AM EDT THU SEP 21 2017

NOTE: "FAIR" INDICATES FEW OR NO CLOUDS BELOW 12,000 FEET WITH NO
SIGNIFICANT WEATHER AND/OR OBSTRUCTIONS TO VISIBILITY.

OHZ001>008-015>018-024>027-034-035-043-044-211300-
   NORTHWEST OHIO

CITY           SKY/WX    TMP DP  RH WIND       PRES   REMARKS
DEFIANCE       FAIR      69  66  90 VRB3      30.07S FOG
FINDLAY        FAIR      68  64  87 S5        30.08R FOG
TOLEDO EXPRESS FAIR      66  66 100 S5        30.07S FOG
TOLEDO EXEC    FAIR      68  66  93 CALM      30.08R FOG
LIMA           FAIR      68  67  96 S3        30.10R
$$

OHZ009>014-019>023-028>033-038-089-211300-
   NORTHEAST OHIO

CITY           SKY/WX    TMP DP  RH WIND       PRES   REMARKS
CLE-HOPKINS    FAIR      67  63  87 S5        30.11S FOG
CLE-LAKEFRONT  FAIR      69  63  81 S6        30.08S
CUY CO. ARPT   PTCLDY    66  63  88 E5        30.10S
LORAIN-ELYRIA  FAIR      62  58  86 CALM      30.11R FOG
ASHTABULA      FAIR      61  61 100 CALM      30.11S FOG
AKRON-CANTON   FAIR      65  61  87 CALM      30.11S
WOOSTER        FOG       58  58 100 CALM      30.12R VSB 1/2
MANSFIELD      FAIR      66  64  93 SW5       30.12R
YOUNGSTOWN     FAIR      61  60  97 E3        30.11S FOG
$$

OHZ042-051>053-060>062-070>072-077>081-211300-
  SOUTHWEST OHIO

CITY           SKY/WX    TMP DP  RH WIND       PRES   REMARKS
CINC-COVINGTON FAIR      67  67 100 SE3       30.11R FOG
CINC-LUNKEN    FOG       64  64 100 CALM      30.11R VSB 1/8
HAMILTON       FAIR      64  64 100 CALM      30.11S FOG
DAYTON         FAIR      68  66  93 SE6       30.12R FOG
WRIGHT-PAT AFB MOCLDY    66  66 100 CALM      30.10R
DAYTON GENERAL FAIR      67  65  93 CALM      30.10R
WILMINGTON     FAIR      62  62 100 CALM      30.12R FOG
$$

OHZ036-037-039>041-045>050-054>059-063>069-073>076-082>088-211300-
  CENTRAL AND SOUTHEAST OHIO

CITY           SKY/WX    TMP DP  RH WIND       PRES   REMARKS
COLUMBUS       FAIR      66  66 100 CALM      30.10R
OSU AIRPORT    FAIR      64  64 100 CALM      30.11R FOG
BOLTON FIELD   FOG       61  61 100 CALM      30.11S VSB 1/4
RICKENBACK AFB MOCLDY    62  62 100 CALM      30.11R
NEWARK         FOG       63  61  93 CALM      30.11R VSB 1/4
MARION         FAIR      66  64  93 CALM      30.11S FOG
LANCASTER      FAIR      62  62 100 CALM      30.12R FOG
ZANESVILLE     CLOUDY    62  59  90 CALM      30.11R
NEW PHILLY     FOG       64  64 100 CALM      30.12R VSB<1/4
$$




USA.gov is the U.S. government's official web portal to all federal, state and local government web resources and services.